Location: Bishop�s Knoyle
(51.0728°N, 2.1714°W)
Time: 14:31:08
(UTC+00:00)

NOSS 3-4 (C) - Pass Details

Date: 18 January 2021
Orbit: 878 x 1335 km, 63.4° (Epoch: 16 February)

Event Time Altitude Azimuth Distance (km) Brightness Sun altitude
Rises 21:15:40 0° 299° (WNW) 3,629 7.3 -42.9°
Reaches altitude 10° 21:18:29 10° 311° (NW) 2,741 6.4 -43.3°
Enters shadow 21:20:52 21° 328° (NNW) 2,125 5.6 -43.6°
